5 day graph

You are here

Hive Data

Page: 1 of 16645  Records: 998690

Row Date Time Hive Temp Hive Humidity Outside Temp Outside Humidity Bottom Board Temp Outside Wall Temp Electronics Temp Light Levels inHG Fan Heat Cover Notes
Clear Sorted By: Bottom Board Temp ascending, Row descending
View 722244 Nov 29 2015 9:15:52am 62.06 54 21.38 80 18.05 26.6 37.4 469 29.47 0 0 0 NA
View 722243 Nov 29 2015 9:14:52am 61.88 55 21.38 81 18.05 26.6 37.4 469 29.47 0 0 0 NA
View 722242 Nov 29 2015 9:13:52am 61.7 47 21.38 80 18.05 26.6 37.4 469 29.47 0 0 0 NA
View 722241 Nov 29 2015 9:12:51am 61.7 48 21.2 80 18.05 26.6 37.4 469 29.47 0 0 0 NA
View 722240 Nov 29 2015 9:11:51am 61.7 44 21.2 80 18.05 26.6 37.4 468 29.47 0 0 0 NA
View 722239 Nov 29 2015 9:10:51am 61.88 48 21.2 80 18.05 26.6 37.4 469 29.46 0 0 0 NA
View 722238 Nov 29 2015 9:09:51am 62.06 44 21.2 81 18.05 26.6 37.4 469 29.46 0 0 0 NA
View 722237 Nov 29 2015 9:08:51am 62.06 48 21.02 80 18.05 26.6 37.4 468 29.46 0 0 0 NA
View 722236 Nov 29 2015 9:07:50am 61.88 57 21.02 80 18.05 26.6 37.4 468 29.47 0 0 0 NA
View 722235 Nov 29 2015 9:06:50am 61.7 53 20.84 80 18.05 26.6 37.4 468 29.47 0 0 0 NA
View 722234 Nov 29 2015 9:05:50am 61.7 63 20.84 80 18.05 26.6 37.4 464 29.47 0 0 0 NA
View 722233 Nov 29 2015 9:04:50am 61.52 52 20.84 80 18.05 26.6 37.4 463 29.47 0 0 0 NA
View 722232 Nov 29 2015 9:03:50am 61.52 48 20.84 80 18.05 26.6 37.4 463 29.47 0 0 0 NA
View 722231 Nov 29 2015 9:02:49am 61.52 50 20.66 80 18.05 26.6 35.6 465 29.47 0 0 0 NA
View 722230 Nov 29 2015 9:01:49am 61.34 51 20.66 79 18.05 26.6 35.6 463 29.47 0 0 0 NA
View 722229 Nov 29 2015 9:00:49am 61.34 50 20.66 79 18.05 26.6 35.6 467 29.47 0 0 0 NA
View 722228 Nov 29 2015 8:59:49am 61.34 45 20.66 79 18.05 26.6 35.6 466 29.47 0 0 0 NA
View 722227 Nov 29 2015 8:58:49am 61.34 47 20.48 79 18.05 26.6 35.6 466 29.47 0 0 0 NA
View 722226 Nov 29 2015 8:57:48am 61.16 49 20.66 79 18.05 26.6 35.6 465 29.47 0 0 0 NA
View 722225 Nov 29 2015 8:56:48am 61.34 41 20.48 79 18.05 26.6 35.6 466 29.47 0 0 0 NA
View 722224 Nov 29 2015 8:55:48am 61.34 42 20.48 79 18.05 26.6 35.6 465 29.46 0 0 0 NA
View 722223 Nov 29 2015 8:54:48am 61.34 47 20.48 80 18.05 26.6 35.6 466 29.46 0 0 0 NA
View 722222 Nov 29 2015 8:53:48am 61.34 49 20.48 80 18.05 26.6 35.6 463 29.46 0 0 0 NA
View 722221 Nov 29 2015 8:52:47am 61.16 47 20.3 80 18.05 26.6 35.6 465 29.47 0 0 0 NA
View 722220 Nov 29 2015 8:51:47am 61.16 47 20.3 80 18.05 26.6 35.6 465 29.47 0 0 0 NA
View 722219 Nov 29 2015 8:50:47am 61.16 44 20.3 80 18.05 26.6 35.6 465 29.47 0 0 0 NA
View 722218 Nov 29 2015 8:49:47am 60.98 45 20.12 79 18.05 26.6 35.6 465 29.47 0 0 0 NA
View 722217 Nov 29 2015 8:48:47am 60.8 49 20.12 79 18.05 26.6 35.6 465 29.46 0 0 0 NA
View 722216 Nov 29 2015 8:47:46am 60.8 43 20.12 80 18.05 26.6 35.6 464 29.46 0 0 0 NA
View 722215 Nov 29 2015 8:46:46am 60.62 45 20.12 80 18.05 26.6 35.6 464 29.47 0 0 0 NA
View 722214 Nov 29 2015 8:45:46am 60.44 43 20.12 80 18.05 26.6 35.6 464 29.47 0 0 0 NA
View 722213 Nov 29 2015 8:44:46am 60.44 45 20.12 80 18.05 26.6 35.6 464 29.46 0 0 0 NA
View 722212 Nov 29 2015 8:43:46am 60.26 41 19.94 81 18.05 27.05 35.6 464 29.46 0 0 0 NA
View 722211 Nov 29 2015 8:42:46am 60.26 40 19.94 80 18.05 27.05 35.6 464 29.46 0 0 0 NA
View 722210 Nov 29 2015 8:41:45am 60.26 39 19.94 80 18.05 26.6 35.6 464 29.46 0 0 0 NA
View 722209 Nov 29 2015 8:40:45am 60.26 40 19.94 80 18.05 26.6 35.6 464 29.46 0 0 0 NA
View 722208 Nov 29 2015 8:39:45am 60.26 40 19.94 80 18.05 26.6 35.6 464 29.46 0 0 0 NA
View 722207 Nov 29 2015 8:38:45am 60.08 39 19.76 79 18.05 26.6 35.6 463 29.46 0 0 0 NA
View 722206 Nov 29 2015 8:37:44am 60.08 43 19.76 80 18.05 26.6 35.6 463 29.46 0 0 0 NA
View 722205 Nov 29 2015 8:36:44am 59.9 42 19.76 80 18.05 26.6 35.6 459 29.46 0 0 0 NA
View 722204 Nov 29 2015 8:35:44am 59.9 42 19.76 80 18.05 26.6 35.6 463 29.46 0 0 0 NA
View 722203 Nov 29 2015 8:34:44am 60.08 39 19.58 80 18.05 26.6 35.6 462 29.46 0 0 0 NA
View 722202 Nov 29 2015 8:33:44am 60.08 37 19.58 79 18.05 26.6 35.6 462 29.46 0 0 0 NA
View 722201 Nov 29 2015 8:32:43am 60.08 41 19.58 79 18.05 26.6 35.6 463 29.46 0 0 0 NA
View 722200 Nov 29 2015 8:31:43am 60.08 42 19.58 79 18.05 26.6 35.6 463 29.46 0 0 0 NA
View 722199 Nov 29 2015 8:30:43am 60.08 44 19.58 79 18.05 26.6 35.6 462 29.46 0 0 0 NA
View 722198 Nov 29 2015 8:29:43am 60.08 37 19.58 80 18.05 26.6 35.6 462 29.46 0 0 0 NA
View 722197 Nov 29 2015 8:28:43am 60.26 36 19.58 80 18.05 26.6 35.6 458 29.46 0 0 0 NA
View 722196 Nov 29 2015 8:27:42am 60.44 37 19.4 80 18.05 26.6 35.6 461 29.46 0 0 0 NA
View 722195 Nov 29 2015 8:26:42am 60.44 38 19.4 80 18.05 26.6 35.6 461 29.47 0 0 0 NA
View 722194 Nov 29 2015 8:25:42am 60.62 39 19.4 80 18.05 26.6 35.6 461 29.46 0 0 0 NA
View 722193 Nov 29 2015 8:24:42am 60.8 44 19.4 80 18.05 26.6 35.6 461 29.46 0 0 0 NA
View 722192 Nov 29 2015 8:23:42am 60.8 45 19.4 80 18.05 26.6 35.6 459 29.46 0 0 0 NA
View 722191 Nov 29 2015 8:22:42am 60.98 49 19.4 79 18.05 26.6 35.6 461 29.46 0 0 0 NA
View 722190 Nov 29 2015 8:21:41am 60.98 45 19.4 79 18.05 26.6 35.6 460 29.46 0 0 0 NA
View 722189 Nov 29 2015 8:20:41am 60.98 51 19.22 80 18.05 26.6 35.6 461 29.46 0 0 0 NA
View 722188 Nov 29 2015 8:19:41am 60.8 55 19.22 80 18.05 26.6 35.6 460 29.46 0 0 0 NA
View 722187 Nov 29 2015 8:18:41am 60.62 53 19.22 80 18.05 26.6 35.6 460 29.46 0 0 0 NA
View 722186 Nov 29 2015 8:17:41am 60.62 45 19.22 80 18.05 26.6 35.6 460 29.46 0 0 0 NA
View 722185 Nov 29 2015 8:16:40am 60.8 41 19.22 80 18.05 26.6 35.6 460 29.46 0 0 0 NA